Regional Weather Roundup
Issued by NWS

Home | Current Version | Previous Version | Text Only | Print | Product List | Glossary On
Versions: 1 2 3 4 5 6 7 8 9 10 11 12 13 14 15 16 17 18 19 20 21 22 23 24 25 26 27 28 29 30 31 32 33 34 35 36 37 38 39 40 41 42 43 44 45 46 47 48 49 50
200
ASUS45 KSLC 091910
RWRUT

UTAH REGIONAL WEATHER ROUNDUP
NATIONAL WEATHER SERVICE SALT LAKE CITY UT
1200 PM MST FRI DEC 09 2016

UTZ001>011-023>025-092000-

NORTHERN UTAH

CITY           SKY/WX    TMP DP  RH WIND       PRES   REMARKS
BRIGHAM CITY     N/A     35  28  78 CALM      30.19F
HILL AFB       CLOUDY    37  32  82 S12       30.19F WCI  29
LOGAN          CLOUDY    34  29  82 N3        30.19F
OGDEN          CLOUDY    38  33  82 CALM      30.19F
SALT LAKE CITY CLOUDY    38  31  76 CALM      30.19F
WENDOVER       PTSUNNY   28  19  69 CALM      30.22F
HEBER CITY     CLOUDY    34  32  93 CALM      30.21F FOG

$$

UTZ011>015-024>027-092000-

CENTRAL/NORTHEAST UTAH

CITY           SKY/WX    TMP DP  RH WIND       PRES   REMARKS
PROVO AIRPORT  CLOUDY    41  32  70 SE8       30.24S
MOAB/CANYONLAN PTSUNNY   35   8  32 W3        30.32F
DELTA          CLOUDY    45  23  42 S8        30.23F
PRICE          PTSUNNY   34   9  35 SE5       30.30F WCI  30
RICHFIELD      PTSUNNY   43  25  49 NE5       30.24F
ROOSEVELT      CLOUDY    28  19  69 E3        30.32F
VERNAL         CLOUDY    28  15  58 SE6       30.29F WCI  22

$$

UTZ013>016-019>022-027-092000-

SOUTHERN UTAH

CITY           SKY/WX    TMP DP  RH WIND       PRES   REMARKS
BRYCE CANYON   SUNNY     39  21  48 SE7       30.29F WCI  34
CEDAR CITY     MOSUNNY   47  24  40 SW13      30.25F
MILFORD        CLOUDY    47  22  37 SW21      30.23F
ST GEORGE      CLOUDY    43  19  39 CALM      30.35F
HANKSVILLE     PTSUNNY   32  10  40 SW3       30.37F
KANAB          PTSUNNY   45  25  45 CALM      30.35F
BLANDING       PTSUNNY   37  19  48 CALM      30.39F

$$

REGIONAL REPORTS     COLORADO/ARIZONA

CITY           SKY/WX    TMP DP  RH WIND       PRES   REMARKS
CRAIG, CO      CLOUDY    35  24  64 CALM      30.23F
GRAND JUNCTION CLOUDY    34  15  46 CALM      30.33F
RIFLE, CO      CLOUDY    32  18  56 CALM      30.33F
MONTROSE, CO   CLOUDY    35  17  47 VRB3      30.33F
CORTEZ, CO     CLOUDY    42  22  44 SW3       30.31F
COLORADO CITY    N/A     50  34  53 S6        30.33F
PAGE, AZ       PTSUNNY   42   7  23 CALM      30.31F
GRAND CANYON   CLOUDY    42  36  79 SW6       30.32F
KINGMAN, AZ    PTSUNNY   58  28  32 W3        30.28F
FLAGSTAFF, AZ  SUNNY     47  34  60 S10       30.32F

$$

REGIONAL REPORTS    NEVADA/IDAHO/WYOMING

CITY           SKY/WX    TMP DP  RH WIND       PRES   REMARKS
LAS VEGAS, NV  CLOUDY    52  10  18 CALM      30.29F
ELY, NY        CLOUDY    37  15  40 NE3       30.26F
ELKO, NV       CLOUDY    40  34  79 NW5       30.19F
POCATELLO, ID  LGT SNOW  23  21  92 NE5       30.16F VSB 1   WCI  17
FORT BRIDGER,  MOCLDY    39  35  84 W17G23    30.17F WCI  30
EVANSTON, WY   CLOUDY    34  30  85 SW20      30.16F WCI  23
ROCK SPRINGS,  CLOUDY    35  29  78 W30G38    30.12F WCI  22
KEMMERER, WY   LGT SNOW  34  32  93 SW20G26   30.14F VSB 1   WCI  22

$$




USA.gov is the U.S. government's official web portal to all federal, state and local government web resources and services.